Theta_e
317 316 316 315 301 297 293 298 303 302 302 304 307 304 301 301 301 298 328 334 339 342 348 349 350 352 353 352 351 350 349 349 347 346 347 345 344 343 341 344 344 342 340 342 342 339 339 337 339
313 315 315 308 295 288 290 299 299 303 307 305 306 305 302 301 318 325 327 336 339 343 347 348 346 351 352 352 351 350 349 349 349 347 345 345 344 343 342 342 344 341 338 337 337 335 338 337 336
308 312 305 300 293 291 291 298 302 304 304 305 305 306 305 304 321 328 333 337 340 343 346 347 346 351 351 351 350 349 349 348 348 348 345 343 342 344 344 344 343 341 336 334 337 335 336 336 335
303 304 304 294 292 295 296 298 301 301 303 306 306 303 308 323 325 331 336 337 341 342 344 343 347 350 350 350 349 349 348 348 348 347 346 344 344 344 344 343 341 340 337 333 335 333 333 333 333
299 299 292 289 290 293 297 300 300 300 301 306 306 303 309 324 330 334 335 337 341 341 342 344 346 348 348 348 349 348 348 347 347 346 345 344 344 344 343 342 340 339 335 334 334 332 331 330 329
291 293 285 287 290 294 296 299 300 299 300 306 304 303 309 325 330 332 335 335 341 340 341 343 340 342 345 346 347 347 346 346 346 346 344 344 344 343 343 342 340 339 335 334 333 333 333 330 328
288 288 284 285 287 290 293 297 295 297 297 300 307 303 315 324 332 334 334 336 340 341 342 343 344 342 338 340 341 343 344 344 344 344 344 342 341 341 341 341 339 338 335 334 335 334 333 331 329
293 291 285 284 285 287 293 294 296 296 296 304 309 302 307 323 334 335 334 334 337 340 342 341 343 342 342 341 335 336 339 339 340 339 337 334 335 336 335 334 337 337 336 335 334 334 333 332 329
293 285 283 285 286 286 291 290 295 297 296 302 308 311 318 320 330 330 328 329 331 336 339 341 341 342 341 341 336 333 334 335 334 334 331 329 334 332 330 330 334 336 335 334 332 332 332 331 329
287 282 284 287 287 286 289 289 289 289 289 298 305 307 308 309 310 314 320 324 327 329 333 339 339 340 340 341 338 338 338 338 337 336 333 334 332 330 329 326 329 331 331 333 332 331 329 323 318
286 282 287 288 289 290 288 288 289 287 286 290 288 293 301 305 305 306 308 317 325 329 332 334 339 338 338 338 337 337 337 336 336 334 334 333 332 328 327 325 327 323 321 325 325 324 320 317 315
282 288 289 289 291 289 287 289 287 288 288 291 291 293 294 302 302 303 306 308 318 324 328 330 335 337 338 338 337 336 336 336 335 335 334 332 330 328 326 324 322 321 320 318 317 317 316 314 315
284 286 289 290 290 289 290 287 286 287 290 292 293 295 293 297 301 303 306 309 315 318 324 329 331 334 336 334 335 334 333 333 334 334 334 333 330 328 326 325 323 321 320 316 314 314 312 311 311
287 288 288 289 289 290 287 287 288 289 291 291 292 293 294 292 296 299 302 306 311 316 319 327 330 333 335 333 333 331 330 330 329 333 334 332 330 328 327 326 323 321 320 315 315 312 310 312 315
288 283 285 287 288 287 290 285 285 290 292 290 291 292 293 294 294 295 301 305 308 311 314 318 328 329 331 331 332 331 332 333 331 332 333 332 330 328 328 326 324 322 320 315 314 311 312 313 315
283 282 278 285 288 289 287 279 288 291 289 289 290 291 292 293 294 297 302 302 305 306 309 315 325 329 329 330 332 332 333 334 334 333 333 331 330 329 327 325 322 322 320 314 312 310 311 312 312
278 270 277 280 288 287 285 281 286 290 288 288 288 288 291 292 292 293 294 295 301 304 307 310 316 326 328 330 332 332 333 332 333 333 333 331 330 330 326 323 321 319 317 313 311 309 311 311 311
269 272 278 278 284 286 284 283 287 289 289 288 287 287 287 289 292 294 295 296 296 297 304 310 314 324 327 330 331 331 331 331 332 332 332 331 330 329 325 322 321 318 314 312 310 309 313 313 313
280 278 277 281 285 284 282 283 285 288 288 288 289 289 289 288 292 294 294 294 295 298 302 307 316 322 323 324 326 328 327 328 329 331 332 331 330 328 326 323 322 318 315 314 313 311 312 312 313
282 279 279 282 286 284 282 282 286 287 288 288 289 289 290 289 291 293 294 293 294 295 297 302 310 319 323 324 326 326 328 329 330 330 330 331 330 328 326 323 321 319 316 314 313 313 313 314 313
280 279 279 279 283 285 283 279 282 287 288 289 290 291 289 289 290 291 293 293 292 293 294 299 315 316 320 325 328 327 328 328 327 328 327 328 328 327 326 324 321 318 317 315 314 315 314 313 314
277 284 284 282 280 275 283 271 279 284 284 287 288 289 290 290 291 292 292 292 293 294 304 308 310 312 317 323 325 326 324 323 325 327 327 326 326 325 324 323 321 320 318 316 315 316 316 315 313
281 285 283 282 279 279 278 276 275 282 280 281 284 285 286 288 289 290 291 292 293 302 302 304 308 308 312 317 324 323 324 324 325 325 325 325 325 326 325 324 323 321 318 316 316 315 316 317 316
286 280 280 281 279 270 272 272 270 275 278 280 283 285 287 288 289 289 291 294 298 298 298 301 304 306 309 313 319 324 323 323 323 323 323 323 324 324 324 324 323 322 322 318 316 316 316 317 318
282 272 265 267 266 265 274 274 271 278 281 281 282 284 286 287 288 287 291 294 296 296 297 300 302 306 306 308 311 309 323 324 323 322 322 322 322 322 323 323 322 322 322 322 320 317 317 318 317
277 277 271 265 268 269 275 271 273 280 283 282 284 286 289 287 289 290 292 294 293 295 299 300 301 301 302 302 302 304 307 311 311 310 316 319 321 321 321 323 323 322 322 323 322 320 318 319 319
276 274 280 274 268 269 267 272 281 279 280 280 282 286 287 289 290 290 292 292 293 294 295 296 297 297 297 298 298 299 299 300 301 301 301 301 301 304 305 306 320 322 322 322 323 322 320 320 319
277 281 271 272 265 263 269 269 268 272 275 278 279 281 285 288 288 289 290 291 292 293 294 295 294 294 294 295 295 295 295 296 296 295 296 295 296 298 299 299 300 300 299 302 313 318 312 318 307
276 274 275 278 275 268 267 267 275 274 277 277 278 281 282 283 285 287 289 290 290 291 292 292 293 292 292 293 293 293 293 292 293 292 293 293 294 294 294 294 294 295 295 296 295 294 294 292 292
280 276 275 272 269 271 271 268 277 277 278 279 278 279 281 282 283 284 286 287 287 288 289 289 290 290 290 291 291 291 292 291 290 290 291 291 291 291 291 291 291 291 291 291 291 290 291 291 290
Wind_Speed
13 12 5 4 2 1 5 7 9 8 6 2 6 7 2 3 1 4 2 0 16 18 15 14 14 18 19 20 20 19 19 17 17 16 15 17 17 16 16 14 13 11 15 15 16 16 18 16 16
8 9 3 1 3 4 5 9 12 12 10 6 4 5 3 4 5 5 2 5 16 15 14 14 13 15 18 19 20 19 19 18 18 17 16 17 18 16 16 16 15 13 14 13 13 14 15 18 15
9 5 2 4 5 10 5 8 16 12 3 7 6 3 5 2 4 6 5 6 17 15 14 13 15 16 17 18 20 19 18 18 18 17 18 16 16 15 15 14 15 15 13 14 13 13 13 15 14
3 5 4 3 16 5 8 9 10 8 3 4 6 4 2 4 8 10 9 8 16 13 13 15 16 17 17 17 20 20 18 18 18 16 17 16 14 14 14 15 16 15 15 13 14 13 12 12 11
4 2 3 6 12 5 8 10 7 11 5 6 5 5 6 3 6 9 9 9 15 12 11 14 17 16 17 17 19 20 19 18 18 17 17 16 15 14 13 15 16 13 14 14 15 14 12 12 10
4 2 3 9 13 8 8 13 18 13 9 8 4 4 4 4 10 3 7 8 15 12 11 13 16 15 15 17 17 19 20 19 18 18 17 16 16 14 13 13 15 16 16 13 15 15 13 11 10
2 1 5 7 8 11 8 7 6 11 8 11 4 6 4 4 6 6 6 6 11 12 12 11 11 15 14 13 14 15 17 18 17 17 16 15 15 14 13 13 13 16 15 15 14 16 14 11 9
2 1 4 3 2 9 5 15 8 11 11 9 7 8 6 5 5 5 5 7 7 8 11 12 11 11 11 10 13 13 13 13 15 14 13 13 13 13 12 10 11 18 15 14 13 14 14 13 9
3 3 3 5 3 7 14 12 7 12 8 11 10 8 6 3 5 4 3 2 4 3 9 11 12 12 11 10 10 13 13 12 13 14 13 13 8 8 10 8 11 17 14 13 12 12 11 11 10
2 3 5 4 8 12 14 11 10 10 18 7 7 13 13 8 8 6 4 5 4 5 4 9 11 11 11 10 10 8 9 8 7 8 9 8 8 7 8 8 10 11 14 15 11 10 9 7 4
4 5 6 10 17 12 13 17 6 9 6 6 11 17 13 7 8 6 5 4 5 7 3 7 10 12 11 9 7 6 5 6 6 8 10 8 7 6 5 4 5 4 7 4 5 5 3 5 3
6 9 10 9 13 18 16 12 13 12 15 11 16 13 11 6 7 8 7 6 6 2 5 8 8 11 13 7 8 7 7 7 6 8 11 8 6 7 6 5 5 4 4 5 5 3 4 5 5
6 6 9 11 15 13 17 13 13 25 14 12 18 17 12 6 6 6 7 7 6 2 4 6 8 8 10 10 10 8 8 7 8 8 11 9 8 9 8 7 6 6 5 5 5 5 5 5 6
5 9 14 11 16 15 19 22 16 21 20 19 14 22 18 8 8 10 7 8 7 3 3 5 6 7 10 9 12 9 8 8 8 8 10 12 9 9 9 9 8 6 7 5 6 6 5 5 4
9 16 16 17 18 14 16 18 27 28 21 23 21 18 23 18 8 11 9 8 6 6 5 2 6 6 9 12 7 8 8 9 9 8 12 13 12 11 11 9 8 8 6 7 6 5 5 5 3
6 4 7 3 4 8 8 20 18 15 12 18 19 20 19 24 10 9 8 7 6 7 7 7 4 5 7 10 11 9 7 8 9 8 9 13 13 13 9 9 8 7 7 6 5 4 4 5 5
3 5 9 14 8 8 8 21 6 8 6 14 10 13 18 16 14 9 10 8 8 8 7 7 5 6 7 8 10 10 12 8 7 8 9 13 13 13 10 8 7 9 8 6 6 4 4 4 4
6 8 9 14 7 8 16 20 17 15 16 17 12 9 8 12 17 11 10 8 8 8 9 7 6 6 7 8 8 8 10 9 7 8 9 13 10 12 9 7 8 7 6 6 5 5 4 4 4
16 18 22 25 22 21 22 25 24 17 14 19 18 16 13 9 8 8 7 7 5 3 5 6 5 7 4 4 5 8 9 7 7 6 11 12 10 10 10 8 9 8 9 9 8 4 6 4 4
16 21 24 21 19 14 18 25 21 20 17 20 19 17 17 9 9 8 9 8 6 4 6 7 6 6 6 5 5 3 8 8 11 8 7 10 12 11 10 10 9 10 8 9 9 8 3 5 5
18 15 18 23 22 18 22 25 24 21 21 20 20 18 11 9 8 8 11 10 8 7 8 7 3 4 4 8 6 5 6 5 6 8 6 7 10 11 12 12 9 9 9 9 10 10 11 7 5
15 8 12 15 14 7 4 12 2 8 9 7 12 11 15 15 13 9 11 8 8 8 5 4 1 3 5 6 8 12 10 9 7 7 9 8 9 10 9 9 9 11 9 10 9 9 9 5 9
12 18 15 21 18 14 8 7 7 8 10 16 13 10 9 10 11 11 10 9 6 6 4 3 3 2 5 7 10 9 7 7 7 7 11 10 7 7 9 8 7 7 8 10 12 11 11 9 8
20 12 21 11 6 4 4 7 5 6 12 17 19 15 10 8 10 11 10 8 7 5 2 1 2 2 3 6 7 10 15 8 8 10 9 9 8 8 10 10 10 10 9 10 9 11 11 12 10
12 8 6 5 2 6 2 2 3 15 17 14 17 22 20 10 11 8 9 8 6 5 4 4 4 0 3 4 2 6 14 12 13 11 9 9 7 8 11 12 11 11 13 10 11 11 12 13 12
11 3 3 6 4 8 4 3 1 18 14 16 17 18 15 4 6 7 9 9 7 7 6 3 2 3 4 4 4 5 7 5 4 6 2 2 3 4 3 12 14 15 15 14 12 11 13 14 12
9 7 14 5 4 3 2 5 1 22 18 18 19 20 3 9 11 10 11 11 7 6 6 5 3 5 6 6 4 7 7 9 5 7 6 4 5 5 6 7 10 15 16 15 14 13 15 14 13
5 8 6 3 5 5 4 5 10 22 22 18 18 16 12 10 12 11 11 9 6 6 6 6 6 7 6 7 6 7 8 8 7 7 9 8 6 7 5 5 7 7 8 8 8 11 5 12 4
13 9 6 5 6 6 6 1 11 19 18 15 13 12 12 13 12 11 10 8 7 7 7 7 7 7 7 8 7 9 9 9 10 11 9 7 8 6 7 8 8 8 8 8 8 8 8 11 9
10 11 9 4 5 4 6 2 15 16 14 12 11 12 12 13 12 11 9 9 9 8 7 9 8 8 8 7 8 11 10 10 11 10 9 8 9 8 9 10 9 11 10 10 9 10 9 11 11
Wind_Direction
324 314 301 11 47 153 216 231 239 259 292 191 144 109 204 234 107 221 243 84 130 146 154 154 166 160 159 157 151 152 150 154 147 144 138 146 137 132 129 119 107 112 122 120 113 112 108 105 99
317 313 7 353 157 237 263 202 254 239 240 146 83 91 85 276 120 137 79 120 149 147 153 152 159 165 160 155 152 156 156 159 150 149 147 142 142 140 138 133 127 122 119 108 106 120 109 107 96
310 220 68 177 201 219 222 198 224 263 246 168 141 159 164 178 116 140 208 115 140 146 153 153 156 166 166 158 154 159 160 160 151 154 151 151 149 146 146 149 138 123 137 128 121 113 104 110 114
338 357 336 230 240 247 228 283 281 297 322 217 162 145 78 325 153 158 164 127 142 150 152 155 158 159 164 164 159 160 163 159 155 159 154 155 149 143 139 144 130 136 130 137 131 126 122 121 122
8 71 249 253 251 264 292 277 278 285 278 219 160 202 139 73 102 142 144 135 149 151 150 161 154 159 163 168 164 161 163 163 160 160 157 152 148 146 141 143 137 133 134 142 138 131 126 124 125
354 111 240 243 258 283 267 250 264 262 266 269 154 173 147 98 98 93 140 127 150 142 150 162 157 155 166 170 170 166 162 165 164 161 161 156 150 150 150 145 148 135 143 150 145 140 134 129 128
129 40 243 294 292 289 300 321 277 291 288 275 185 154 129 88 127 114 94 104 140 146 150 158 165 159 164 175 166 171 166 165 166 167 166 156 149 148 151 154 161 139 144 148 143 144 141 138 136
52 52 280 280 35 288 353 337 4 24 299 282 195 189 166 188 111 82 102 112 122 148 150 156 162 163 168 171 167 170 168 163 159 161 159 149 147 146 144 150 164 140 153 149 145 143 147 147 148
35 318 301 290 320 326 338 352 330 316 330 319 354 29 77 59 95 104 103 104 137 151 156 164 168 168 167 167 174 170 168 163 161 159 158 150 151 150 144 151 152 149 151 147 154 153 150 142 153
137 207 238 258 320 319 320 325 326 344 331 305 47 20 14 23 32 65 337 201 178 191 190 172 169 171 166 172 165 173 169 164 165 156 157 154 152 152 148 147 151 153 144 147 159 158 148 146 159
255 238 284 293 306 311 316 310 318 318 293 306 326 321 334 344 356 22 9 356 214 205 196 200 175 171 172 179 167 170 168 166 158 156 161 156 155 156 143 144 150 138 126 133 139 146 157 183 189
307 285 291 306 306 304 301 293 290 268 263 279 302 291 304 327 329 331 344 327 324 172 237 209 202 185 181 181 174 175 171 170 168 165 167 165 160 159 154 148 148 144 144 150 151 171 194 213 219
286 288 292 297 294 287 296 293 275 282 287 280 288 289 274 262 284 304 311 294 286 335 278 245 203 189 173 173 175 177 175 176 172 169 172 170 167 165 159 157 165 167 161 162 170 183 203 216 225
298 312 298 289 287 280 277 277 272 271 288 276 272 284 284 242 222 274 276 278 285 297 313 269 245 198 175 171 180 172 171 173 174 174 176 170 168 167 169 166 171 180 174 174 177 181 194 208 214
308 304 295 275 260 261 258 269 253 246 254 270 274 266 276 270 239 234 233 253 271 293 282 272 255 214 182 179 195 182 184 173 180 178 175 172 172 174 173 170 177 182 182 171 184 184 186 188 199
267 252 295 208 255 241 138 251 261 278 242 252 267 265 259 270 244 245 238 233 275 264 278 276 262 186 199 179 177 185 187 183 178 167 172 173 176 178 171 175 175 176 177 171 175 178 180 191 181
292 253 259 295 236 271 209 273 312 292 270 270 270 278 250 252 259 225 242 223 237 252 256 269 262 203 188 186 184 197 171 178 172 163 172 178 177 182 174 170 167 163 172 174 179 186 163 189 182
269 277 260 271 276 287 282 275 271 268 278 274 271 267 252 245 245 239 242 244 229 247 259 265 250 211 183 183 191 193 188 181 171 171 180 181 180 176 170 162 166 161 165 178 174 173 184 175 186
270 267 267 270 273 276 270 268 271 268 255 259 261 267 268 241 230 223 237 251 246 259 285 275 269 215 165 175 210 210 191 184 180 176 185 189 180 178 169 173 172 169 179 189 186 170 183 208 186
270 275 275 277 275 264 276 269 263 260 254 246 246 243 248 242 235 217 221 228 241 239 270 283 272 259 199 193 200 195 175 198 192 188 181 189 187 179 175 177 182 181 181 179 189 187 172 192 180
278 266 273 274 293 273 268 272 263 258 249 249 254 250 228 223 235 224 216 210 224 235 248 261 221 296 290 212 184 175 168 187 179 181 184 190 185 176 184 184 177 178 184 193 192 198 197 198 208
287 253 292 288 295 304 121 292 80 259 237 254 258 262 240 238 238 210 223 203 208 234 188 165 256 354 324 272 186 211 198 196 201 180 186 185 183 174 176 179 181 184 186 188 201 199 207 172 206
270 292 279 275 273 289 240 258 282 341 18 346 332 328 331 289 243 205 208 205 190 153 185 195 156 346 316 306 237 211 211 182 161 169 183 180 197 195 196 197 202 206 192 200 191 202 207 208 200
290 298 285 271 248 246 302 175 312 22 337 326 329 324 314 304 310 239 199 159 137 123 102 37 346 300 317 297 274 229 206 160 165 188 185 178 186 199 195 193 203 211 210 204 197 206 202 213 214
329 340 311 1 345 222 283 178 273 7 351 331 318 310 301 295 296 235 150 126 110 80 53 25 330 307 10 310 302 39 232 185 181 183 190 172 175 201 216 213 210 203 206 205 206 199 216 217 214
314 287 288 313 312 286 179 251 197 13 342 333 322 303 283 305 8 108 99 103 91 71 48 38 1 50 38 45 25 38 360 38 98 78 66 186 205 202 246 222 214 212 213 213 214 213 216 212 215
326 315 295 260 248 260 207 343 81 353 346 338 343 343 103 102 81 68 76 73 72 78 59 54 57 59 57 62 45 67 51 48 46 80 77 71 39 6 7 353 254 214 207 209 216 217 214 210 217
285 297 332 295 312 296 3 62 329 343 343 347 342 353 1 60 59 61 61 64 65 61 68 70 67 63 59 68 68 71 66 74 71 54 64 56 43 35 23 41 35 45 35 18 265 223 220 208 177
360 1 347 287 22 326 325 63 357 346 335 337 338 356 9 44 41 53 53 51 59 58 60 60 58 65 68 68 76 76 68 62 59 58 52 49 55 40 48 50 49 45 48 48 52 50 70 71 60
11 359 10 352 3 315 287 342 19 344 340 341 352 8 22 39 42 43 43 45 47 44 50 58 52 60 58 68 87 81 79 72 71 66 61 57 61 53 57 59 58 56 48 50 60 71 50 78 71